Location: Seasalter
(51.3333°N, 1.0167°E)
Time: 12:18:07
(UTC+00:00)

IRS-1D - Pass Details

Date: 26 September 2023
Orbit: 738 x 815 km, 98.7° (Epoch: 28 November)

Event Time Altitude Azimuth Distance (km) Brightness Sun altitude
Rises 03:12:44 0° 17° (NNE) 3,357 7.5 -23.9°
Reaches altitude 10° 03:15:07 10° 20° (NNE) 2,419 6.7 -23.6°
Maximum altitude 03:20:27 67° 103° (ESE) 883 3.9 -22.9°
Enters shadow 03:23:27 26° 179° (S) 1,537 4.8 -22.5°
